Theta_e
311 310 310 310 310 311 312 312 311 310 310 309 309 309 310 311 312 311 311 312 315 318 319 319 319 318 317 316 319 318 313 313 313 312 312 313 314 315 314 314 314 314 314 315 316 316 314
309 310 311 311 311 311 311 311 310 309 309 309 309 310 311 312 311 311 313 316 319 319 319 318 318 318 316 314 317 317 316 314 313 312 312 312 314 315 315 314 313 313 313 313 314 315 313
307 307 308 309 309 309 309 309 308 308 308 309 310 311 311 311 311 313 316 318 319 318 318 318 319 319 317 317 316 317 317 316 312 312 312 312 315 315 314 313 314 314 312 309 311 312 311
311 309 308 307 307 307 308 308 308 308 309 310 311 311 311 311 313 316 318 318 318 317 318 319 320 319 317 316 316 314 315 315 313 312 312 313 314 315 315 314 312 311 310 310 311 312 313
317 316 314 311 310 309 310 309 309 310 310 311 312 312 312 313 316 317 318 317 317 318 318 319 319 317 316 315 315 314 314 314 313 313 313 313 315 314 313 308 308 308 309 310 311 312 312
319 317 316 316 316 316 315 315 314 312 313 314 315 316 316 316 317 317 318 318 319 319 320 320 318 316 316 314 313 313 312 312 312 312 312 313 313 307 306 306 311 309 310 309 310 312 311
323 321 319 318 316 315 315 316 316 316 315 315 316 316 316 316 317 318 319 319 320 320 320 319 317 316 315 314 313 311 311 312 311 311 308 311 307 307 308 308 308 309 309 311 310 310 312
324 323 322 320 319 318 317 315 315 316 315 315 315 315 315 316 318 319 320 321 320 319 318 319 320 318 315 316 314 312 311 312 311 310 309 309 308 308 307 307 309 309 311 310 310 309 310
322 322 324 324 322 320 318 317 316 316 316 316 315 315 316 317 319 320 320 321 320 320 318 319 319 319 319 318 317 316 313 312 310 309 309 310 312 310 310 310 310 310 310 311 311 310 309
321 322 322 324 325 324 322 320 318 317 316 316 316 316 317 318 320 320 320 321 321 320 316 316 315 316 316 316 315 315 313 312 310 310 309 309 310 312 311 312 311 314 309 310 312 310 313
320 320 323 322 325 325 325 324 321 319 318 317 316 317 317 317 321 321 320 321 320 318 321 314 312 311 313 315 311 309 310 311 310 310 309 313 312 310 311 311 311 313 309 310 310 309 308
319 321 321 321 323 323 323 325 325 321 320 318 318 317 317 318 321 320 321 320 319 319 321 313 309 308 309 308 308 308 310 310 311 310 309 311 309 309 310 308 309 308 308 307 305 306 310
309 310 320 320 320 321 323 323 324 324 322 320 320 319 318 318 320 321 320 319 320 323 316 313 309 307 308 307 306 307 307 307 309 312 312 310 310 309 309 309 308 308 309 312 310 309 313
307 308 309 320 321 320 321 322 323 324 324 322 320 321 320 319 320 322 320 319 321 321 318 310 309 308 309 307 307 306 306 308 305 308 308 311 315 309 307 309 309 307 309 311 309 309 310
311 306 309 308 320 322 322 320 322 322 324 324 321 321 322 321 321 322 318 322 321 319 316 311 311 310 310 309 308 307 306 307 307 305 313 311 313 308 307 308 309 309 310 308 309 294 305
312 312 308 308 308 318 320 322 318 321 323 324 323 320 321 322 322 321 320 323 320 318 316 312 314 313 313 315 311 307 306 308 311 306 309 310 313 310 309 308 307 309 307 311 307 307 308
310 313 313 308 308 311 316 317 318 321 322 321 320 318 319 321 321 318 322 321 318 317 314 315 315 316 314 315 313 308 311 311 308 308 310 310 311 310 310 310 309 308 309 308 308 306 304
307 308 314 313 311 311 317 318 320 319 318 316 317 316 314 318 316 315 321 317 316 313 313 313 312 313 314 312 314 311 311 311 309 310 312 310 309 309 310 307 304 307 308 308 310 308 304
306 306 308 312 317 317 317 317 320 319 318 317 316 312 313 314 318 313 312 314 312 311 313 314 314 312 311 311 313 310 309 308 309 309 310 309 307 303 307 306 307 307 306 306 305 302 300
304 304 306 307 309 314 317 319 318 318 317 317 314 310 310 310 310 312 313 314 315 312 312 312 313 311 311 312 310 309 309 308 308 309 310 310 306 308 314 306 306 306 305 304 304 305 304
303 304 304 305 306 307 309 314 314 316 316 317 313 308 308 308 309 311 313 313 314 313 311 312 311 313 313 312 310 310 308 308 307 308 307 307 305 305 304 304 304 304 304 303 303 304 307
302 303 304 302 303 305 306 308 308 309 310 311 305 305 305 308 310 310 311 312 314 314 311 311 313 312 311 312 310 309 308 307 307 305 305 302 304 302 299 304 305 305 304 303 304 304 302
300 303 303 303 302 302 303 305 306 307 306 304 301 301 303 305 310 311 311 312 311 312 309 309 310 310 311 310 308 304 306 305 305 304 303 302 301 302 307 297 297 299 298 301 302 300 301
298 299 301 302 301 301 301 303 304 304 305 304 301 301 301 304 305 309 309 309 307 308 308 304 306 308 302 304 301 301 298 297 300 298 302 302 301 301 298 294 301 300 293 294 296 297 293
296 297 298 300 302 301 300 300 299 300 302 301 301 301 300 301 301 302 304 304 306 304 300 299 298 302 302 301 299 300 297 298 296 295 298 298 299 297 301 292 295 298 294 291 292 292 291
297 297 296 297 298 300 300 299 298 297 297 298 298 299 300 299 300 301 300 300 302 301 296 294 296 296 298 297 299 302 301 299 293 291 292 297 297 302 288 294 296 295 291 292 292 291 288
296 298 297 297 296 297 297 299 298 298 298 297 296 295 297 296 296 299 299 300 301 299 297 294 294 295 295 295 294 296 296 293 292 290 291 292 295 300 293 298 290 288 290 292 289 292 291
296 297 297 298 297 296 296 296 298 297 298 298 296 295 295 294 294 295 296 297 297 299 297 293 296 294 294 298 297 294 292 291 289 290 291 291 291 290 289 291 292 290 290 292 292 292 293
295 296 296 297 298 297 296 296 297 297 297 297 297 296 295 294 293 294 294 295 298 299 299 295 297 293 295 293 290 291 288 285 286 288 290 292 291 290 291 291 291 291 293 294 294 294 293
Wind_Speed
29 28 27 26 25 24 22 21 19 18 17 16 14 13 12 12 11 11 11 10 10 10 10 11 10 11 10 6 8 8 6 6 7 8 7 6 6 5 3 3 1 3 4 6 10 13 13
30 30 29 28 27 26 25 23 22 20 19 17 16 15 14 14 13 12 12 12 12 12 11 11 10 10 9 6 8 9 8 10 10 10 10 7 5 6 3 2 3 2 5 11 12 19 12
31 30 30 29 28 27 26 25 24 22 21 19 18 17 17 15 14 13 13 13 13 12 11 11 10 10 12 15 10 8 9 9 9 9 10 9 8 6 4 0 1 2 5 8 10 7 5
33 31 30 30 29 28 27 26 25 24 23 22 21 20 18 16 15 15 15 14 12 12 12 11 10 9 9 10 11 12 12 10 9 9 8 6 7 4 2 1 4 3 3 4 4 2 1
31 31 31 32 31 30 29 29 27 26 25 24 22 21 19 17 16 16 15 13 12 12 13 12 10 7 7 7 10 12 9 8 9 9 8 6 5 3 3 4 4 5 3 4 8 3 2
28 28 28 28 29 30 29 29 28 28 27 26 24 22 19 18 16 16 13 12 12 13 13 11 12 5 12 6 7 8 9 8 6 9 7 5 4 3 3 4 5 6 4 5 5 0 3
29 28 27 27 27 27 28 26 26 27 26 25 24 22 19 17 16 15 12 10 9 6 15 10 4 5 2 9 9 9 11 11 9 6 5 3 4 7 13 11 3 2 4 4 3 5 1
30 30 29 29 28 28 27 26 25 26 26 25 24 22 19 17 17 16 13 8 8 3 8 14 22 19 13 10 7 13 14 10 7 5 6 4 7 13 4 5 5 2 2 5 6 4 3
34 33 34 32 30 29 28 27 26 25 25 25 24 22 19 18 17 18 16 14 10 7 5 8 17 18 19 19 10 15 18 10 5 6 8 8 6 5 7 4 5 4 5 5 8 3 1
40 31 33 35 33 32 30 29 27 26 25 25 24 22 20 19 17 20 20 14 9 4 2 6 6 6 10 9 5 13 20 8 4 11 6 5 5 4 4 5 7 4 8 7 3 3 4
28 34 34 37 38 39 33 32 31 28 27 26 26 25 24 25 12 18 13 13 10 5 5 3 4 6 10 9 10 5 14 5 6 6 7 7 5 4 5 8 6 7 4 4 2 2 3
31 24 33 29 29 36 41 35 35 32 29 29 29 28 26 25 25 17 13 16 12 3 10 5 6 6 5 4 4 6 5 4 3 3 1 6 1 4 6 3 6 5 4 6 4 3 1
28 28 30 34 32 31 29 35 41 37 35 34 33 32 32 32 33 21 19 19 2 7 0 6 5 6 5 6 4 5 6 6 6 5 6 1 4 2 3 5 3 4 5 2 4 2 5
35 30 32 34 34 26 30 30 30 34 38 37 36 34 35 37 35 29 29 4 9 7 8 4 6 5 8 8 5 6 7 5 6 3 4 7 3 8 4 6 6 6 7 5 7 3 4
29 37 36 35 34 34 36 30 27 30 35 39 39 39 41 44 38 37 27 10 11 8 6 9 4 5 5 6 6 5 8 6 9 12 7 6 4 2 3 2 5 5 5 3 5 2 3
21 29 37 38 36 35 32 34 30 32 27 34 42 46 45 48 47 46 16 21 10 6 8 5 12 8 11 8 8 8 10 5 5 9 0 5 2 1 1 3 4 4 6 4 2 2 5
18 18 28 35 35 35 35 34 30 28 19 17 38 17 23 50 43 24 12 10 6 8 8 8 10 7 7 8 9 7 7 1 5 6 7 5 4 2 3 5 8 2 2 3 3 5 6
18 18 13 24 31 32 31 32 30 26 18 15 22 4 20 33 14 4 13 7 8 8 6 3 4 4 9 8 7 7 11 7 14 14 9 5 4 4 8 1 1 3 7 7 5 6 3
22 17 13 10 21 26 28 28 28 34 27 26 10 4 23 29 8 3 3 3 2 4 5 5 3 4 2 7 5 7 6 1 14 9 10 8 1 2 6 4 2 4 4 4 4 4 7
18 20 14 9 4 16 21 24 26 28 32 29 12 2 3 9 3 6 7 5 5 6 2 4 5 3 4 4 3 7 6 2 2 1 1 9 5 8 13 6 5 5 5 5 5 3 4
16 16 16 12 7 4 11 24 28 32 39 36 14 6 10 5 6 6 11 8 12 8 7 12 4 10 10 6 5 6 4 3 4 4 3 4 5 2 1 4 4 3 5 9 8 7 11
15 18 16 13 14 11 6 13 19 24 25 17 7 6 7 6 21 15 11 12 15 14 9 5 9 14 11 7 7 8 8 4 5 2 5 1 2 3 2 2 1 4 7 9 10 7 8
20 14 15 14 14 14 15 13 11 16 15 6 1 6 6 5 10 13 13 18 17 16 8 6 15 6 15 15 11 4 8 11 8 9 7 6 6 4 7 2 3 8 12 15 10 6 8
23 23 19 19 14 12 13 18 18 18 16 18 17 6 4 2 2 7 8 14 8 8 6 1 5 7 9 13 19 13 16 12 8 6 5 6 5 2 3 2 6 3 2 3 8 10 7
19 23 25 22 16 15 14 12 12 14 18 19 16 11 6 2 3 1 2 3 9 8 4 5 2 6 24 11 3 4 4 3 1 2 3 3 6 4 4 5 7 9 5 7 7 9 9
23 20 22 25 23 19 18 16 13 11 10 11 13 13 5 4 5 6 4 4 3 3 4 3 7 29 13 3 2 6 5 5 4 1 6 3 4 4 3 5 8 6 2 5 6 6 10
27 25 24 23 25 25 25 20 17 16 13 11 7 11 5 1 2 12 4 4 8 4 2 6 11 3 4 3 2 3 4 4 6 7 5 4 1 9 6 7 8 6 6 6 6 8 14
29 30 24 26 24 23 22 24 21 20 19 17 14 11 12 3 3 9 11 6 8 13 5 9 7 2 2 3 3 3 3 5 2 3 7 7 7 4 2 3 9 12 8 8 5 12 17
28 29 29 29 29 24 25 23 24 23 22 21 21 15 15 9 5 12 17 13 15 14 18 24 5 7 10 3 1 3 2 1 3 4 2 2 7 6 11 8 1 22 8 24 19 16 16
Wind_Direction
235 234 235 234 234 234 236 238 238 240 242 242 243 248 254 260 266 267 269 271 276 281 284 286 286 287 288 267 254 250 235 223 218 218 221 225 206 178 176 202 195 195 283 282 278 281 283
239 236 235 237 237 236 236 237 238 239 239 240 243 247 253 259 261 262 263 265 269 274 278 278 282 281 273 244 253 247 238 234 235 234 227 231 217 196 184 215 179 198 274 283 287 280 278
240 238 236 235 236 237 237 238 238 238 241 243 245 249 254 256 257 256 259 263 268 272 277 280 281 278 266 266 260 251 236 230 229 221 222 219 195 194 164 246 316 302 324 327 273 273 209
242 239 237 236 236 236 238 240 241 242 243 246 250 251 251 252 253 255 257 260 265 272 274 278 278 274 256 257 250 245 241 228 219 214 212 211 210 213 214 162 14 22 46 347 292 169 56
242 242 240 240 239 239 239 241 242 245 247 247 248 249 249 246 246 249 255 263 268 270 270 273 272 247 261 252 235 235 226 220 212 209 206 192 184 165 130 89 6 4 236 218 314 340 89
243 242 243 241 241 242 243 242 242 242 244 245 245 244 244 245 243 246 252 262 272 272 264 264 251 259 235 223 210 205 201 189 176 175 157 171 149 84 51 104 225 206 215 239 233 219 40
242 241 240 243 243 243 241 240 240 240 241 241 240 240 237 234 235 243 251 267 270 258 232 217 214 216 191 197 192 193 186 173 152 166 153 149 118 205 203 200 198 165 187 227 267 261 317
240 243 242 240 241 242 243 241 239 239 241 241 241 238 230 225 227 236 240 229 233 252 294 248 244 241 240 216 205 198 185 179 173 175 119 59 219 230 135 179 205 218 244 260 274 266 164
242 247 243 241 239 240 240 241 239 240 240 240 238 233 223 222 224 232 236 235 248 265 268 263 235 237 231 229 224 206 193 191 164 148 192 177 213 171 169 166 161 210 189 222 221 354 269
241 253 251 247 241 239 240 239 238 237 239 236 235 226 217 218 224 228 233 229 228 227 282 256 211 213 194 179 230 197 191 182 190 195 171 237 253 182 168 199 148 224 208 205 203 127 224
239 249 239 252 242 242 240 238 238 234 235 236 232 227 220 213 207 207 221 207 189 184 283 202 164 166 163 177 140 172 180 183 169 176 136 235 181 175 187 214 157 236 117 154 118 131 57
253 249 244 244 237 240 239 240 239 233 232 233 230 226 221 214 213 205 194 176 162 95 243 195 145 160 138 183 160 128 162 161 142 144 214 235 244 184 206 84 150 137 88 53 56 112 293
263 266 251 245 248 247 241 243 239 234 231 231 229 224 219 216 215 193 175 163 163 210 17 190 183 165 177 167 178 160 165 171 159 138 216 234 219 194 173 94 77 98 80 327 333 358 230
262 255 258 251 238 245 246 240 234 238 234 229 229 224 222 222 215 202 179 170 214 196 199 117 138 117 177 159 214 173 142 190 237 191 127 166 252 166 190 189 175 176 157 168 224 211 255
259 255 247 251 246 246 244 245 243 242 241 235 226 225 220 219 215 207 181 210 214 170 190 144 98 140 219 207 161 152 193 199 201 186 174 151 264 127 170 146 148 188 170 165 93 57 45
278 254 247 244 246 240 244 240 245 245 247 229 235 221 221 220 215 210 204 210 217 187 148 155 178 176 181 191 161 185 178 204 199 188 85 197 133 158 135 112 29 159 167 90 42 282 255
321 283 249 240 241 240 238 242 246 251 233 225 229 207 218 221 218 199 207 219 192 212 185 168 188 165 201 173 179 192 195 242 185 157 140 145 124 226 115 199 185 140 190 67 132 155 191
313 332 280 242 238 238 235 235 237 232 221 228 209 214 177 194 185 205 220 182 191 172 172 171 139 153 175 174 170 203 199 211 180 146 159 192 136 168 196 230 338 285 197 166 189 240 258
294 313 329 288 238 243 235 231 235 222 221 202 180 126 167 181 198 185 143 185 198 154 168 150 188 215 168 163 177 189 190 343 174 154 160 180 190 53 345 7 22 225 206 151 102 74 202
280 292 297 328 295 215 227 214 208 211 201 191 156 134 210 220 138 176 197 203 194 235 218 153 161 106 117 188 234 175 173 58 118 81 41 169 160 178 230 190 134 178 197 180 150 171 178
267 275 277 279 301 345 204 210 202 213 197 186 180 173 178 183 220 205 185 190 198 194 211 179 189 201 185 195 179 171 133 118 52 92 106 143 218 120 218 158 144 212 197 182 192 212 213
244 258 266 270 266 261 272 215 206 200 199 190 170 155 177 192 200 191 191 194 203 196 171 199 218 197 207 196 195 187 132 162 189 107 151 124 162 89 313 296 15 264 226 199 231 234 250
233 239 246 251 262 252 240 240 239 225 228 234 163 143 116 187 183 184 200 208 210 193 197 179 213 191 213 215 227 117 167 158 155 157 167 149 133 126 238 66 66 284 224 212 219 199 210
240 239 235 238 241 242 240 233 226 232 237 242 237 216 139 248 293 217 192 188 188 191 186 131 175 168 162 148 115 96 71 75 94 80 133 134 114 144 143 107 223 260 131 125 227 243 208
247 236 236 241 235 236 236 233 236 236 232 227 238 201 166 151 179 319 107 92 146 152 129 140 194 204 163 128 95 89 7 36 294 27 146 139 138 161 192 194 322 284 195 167 173 257 195
247 240 237 234 238 233 231 229 241 240 231 241 223 204 166 142 217 125 132 158 137 127 130 114 125 145 162 88 132 164 183 153 210 326 14 124 46 187 133 179 215 257 58 136 102 276 212
242 240 231 231 229 236 238 229 235 231 225 220 221 219 196 193 197 171 153 191 165 128 94 120 131 191 162 130 131 156 204 176 167 177 173 114 159 216 210 234 283 218 191 131 116 252 167
235 235 238 233 230 226 230 225 223 225 219 218 219 215 214 209 274 204 183 177 171 179 155 146 110 176 95 166 158 176 158 211 134 169 174 155 158 194 88 209 267 167 121 172 199 160 178
236 235 235 238 225 222 222 221 218 216 215 223 224 211 209 219 258 246 244 217 210 207 186 168 178 148 165 115 166 108 149 63 172 222 133 222 191 184 188 203 175 179 201 221 241 241 228